Location: Lafig�re
(44.4503°N, 4.0357°E)
Time: 07:53:17
(UTC+00:00)

Cosmos 1125 Rocket - Pass Details

Date: 18 January 2021
Orbit: 756 x 781 km, 74.0° (Epoch: 05 March)

Event Time Altitude Azimuth Distance (km) Brightness Sun altitude
Rises 05:25:14 0° 351° (N) 3,260 6.6 -19.3°
Reaches altitude 10° 05:28:30 10° 12° (NNE) 2,333 6.0 -18.7°
Maximum altitude 05:31:53 17° 51° (NE) 1,901 6.0 -18.1°
Drops below altitude 10° 05:35:15 10° 91° (E) 2,332 7.3 -17.5°
Sets 05:38:30 0° 112° (ESE) 3,258 8.4 -16.9°
